Other Public Products
Issued by NWS Grand Forks, ND

Home | Current Version | Previous Version | Text Only | Print | Product List | Glossary Off
Versions: 1 2 3 4 5 6 7 8 9 10 11 12 13 14 15 16 17 18 19 20 21 22 23 24 25 26 27 28 29 30 31 32 33 34 35 36 37 38 39 40 41 42 43 44 45 46 47 48 49 50

000
FPUS83 KFGF 060631
OPUFGF
PRAIRIE TO PINES WEATHER ROUNDUP
NATIONAL WEATHER SERVICE EASTERN NORTH DAKOTA/GRAND FORKS ND
100 AM CDT MON JUL 06 2015

 **SATELLITE DATA USED TO AUGMENT SKY COVER AT AUTOMATED STATIONS**
 *****  WEATHER ACROSS EASTERN NORTH DAKOTA  *****

CITY           SKY/WX    TMP DP  RH WIND       PRES   REMARKS
GRAND FORKS    CLOUDY    61  59  93 NW6       29.90R FOG
6HR MIN TEMP:  61; 6HR MAX TEMP:  75;

GRAND FORKS AF MOCLDY    62  59  88 N7        29.91S FOG
GRAND CITY NWS   N/A     61 N/A N/A N2          N/A
BUXTON         NOT AVBL
DEVILS LAKE    MOCLDY    63  52  67 N16G23    29.95F
6HR MIN TEMP:  64; 6HR MAX TEMP:  72;

FARGO          CLOUDY    66  57  72 N12       29.87F HAZE
6HR MIN TEMP:  67; 6HR MAX TEMP:  77;

WAHPETON ARPT  CLOUDY    68  59  73 N10       29.85F
$$

 *****  WEATHER ACROSS CENTRAL AND WESTERN NORTH DAKOTA  *****

CITY           SKY/WX    TMP DP  RH WIND       PRES   REMARKS
JAMESTOWN      CLOUDY    64  58  80 N9        29.92F HAZE
6HR MIN TEMP:  64; 6HR MAX TEMP:  71; 6HR PCP: TRACE;

BISMARCK       CLOUDY    66  57  72 N10       29.99S HAZE
6HR MIN TEMP:  66; 6HR MAX TEMP:  72; 6HR PCP: TRACE;

MINOT          PTCLDY    59  53  80 W12       30.03R
6HR MIN TEMP:  58; 6HR MAX TEMP:  72;

MINOT AFB      PTCLDY    58  58  99 NW8       30.03R
6HR MIN TEMP:  58; 6HR MAX TEMP:  75;

GARRISON         N/A     57  54  89 NW9       30.03R
6HR MIN TEMP:  57; 6HR MAX TEMP:  71;

WILLISTON      MOCLDY    61  51  70 N6        30.09R
6HR MIN TEMP:  60; 6HR MAX TEMP:  74;

DICKINSON      CLOUDY    56  53  90 NW6       30.06R
6HR MIN TEMP:  55; 6HR MAX TEMP:  67;

HETTINGER      CLOUDY    60  55  83 N8        30.07R HAZE
6HR MIN TEMP:  60; 6HR MAX TEMP:  66; 6HR PCP: TRACE;

$$

 *****  OTHER OBSERVATIONS NORTHEAST NORTH DAKOTA  *****

CITY           SKY/WX    TMP DP  RH WIND       PRES   REMARKS
WALHALLA       FAIR      59  59 100 MISG      29.98R FOG
LANGDON        FAIR      57  55  94 N8        29.99R FOG
CAVALIER       FAIR      61  54  77 N14G20    29.96R HAZE
GRAFTON        FAIR      63  59  88 N13       29.94R FOG
CANDO          FAIR      57  54  88 N10       30.00R FOG
FORT TOTTEN      N/A     65  56  72 N7        29.95S
ROLLA          FAIR      54  54 100 N10       30.02S
RUGBY          NOT AVBL
 ***** THE ABOVE OBSERVATIONS ARE NON NWS ARE NOT QUALITY
        CONTROLLED AND MAY MIS-REPORT RAIN FOR SNOW...
$$

 *****  OTHER OBSERVATIONS SOUTHEAST NORTH DAKOTA *****

CITY           SKY/WX    TMP DP  RH WIND       PRES   REMARKS
COOPERSTOWN    NOT AVBL
VALLEY CITY    CLOUDY    64  64 100 N9        29.90F FOG
OAKES            N/A     66  66 100 N13       29.88S FOG
GWINNER          N/A     68  64  88 N14       29.87F
SHEYENNE NWR     N/A     69  56  63 N10       29.95S
BUFFALO        NOT AVBL
WYNDMERE         N/A     70  64  83 N8          N/A
 ***** THE ABOVE OBSERVATIONS ARE NON NWS ARE NOT QUALITY
       CONTROLLED AND MAY MIS-REPORT RAIN FOR SNOW...
$$

  *****  WEATHER ACROSS NORTHERN MINNESOTA  *****

CITY           SKY/WX    TMP DP  RH WIND       PRES   REMARKS
FLAG ISLAND      N/A     64  59  82 N17       29.88R HAZE
WARROAD        MOCLDY    61  57  88 NW7       29.91R FOG
ROSEAU         MOCLDY    61  55  82 N10       29.91R HAZE
HALLOCK          N/A     63  57  82 N13       29.93R FOG
THF RVR FALLS  CLOUDY    63  59  88 N7        29.90S
6HR MIN TEMP:  63; 6HR MAX TEMP:  73;

HALSTAD        NOT AVBL
FOSSTON          N/A     61  61 100 CALM      29.91R FOG
BAUDETTE       CLOUDY    64  58  80 N7        29.87R HAZE
6HR MIN TEMP:  63; 6HR MAX TEMP:  72;

WASKISH        PTCLDY    63  61  94 CALM      29.89R FOG
CROOKSTON      CLOUDY    63  61  94 N6        29.90R FOG
$$
  *****  WEATHER ACROSS CENTRAL AND WEST MINNESOTA  *****

CITY           SKY/WX    TMP DP  RH WIND       PRES   REMARKS
BEMIDJI        PTCLDY    63  61  94 N3        29.89S
PARK RAPIDS    CLOUDY    69  63  81 N9        29.89R
6HR MIN TEMP:  69; 6HR MAX TEMP:  84; 6HR PCP:  0.52;

WADENA         MOCLDY    66  63  88 N8        29.86F
DETROIT LAKES  PTCLDY    66  63  88 N5        29.89F
MOORHEAD       CLOUDY    66  59  77 N12       29.87F HAZE
FERGUS FALLS   CLOUDY    70  64  83 N9        29.85S
ELBOW LAKE     FAIR      70  65  85 N14       29.83F
6HR MIN TEMP:  70; 6HR MAX TEMP:  82;

MORRIS MN      CLOUDY    72  68  88 N12       29.80S
STAPLES        CLOUDY    68  66  94 N5        29.87S
WHEATON        CLOUDY    66  64  94 N12G17    29.86S
$$
  *****  WEATHER ELSEWHERE ACROSS MINNESOTA  *****

CITY           SKY/WX    TMP DP  RH WIND       PRES   REMARKS
DULUTH         CLOUDY    67  65  93 SW6       29.86F FOG
6HR MIN TEMP:  66; 6HR MAX TEMP:  80; 6HR PCP:  0.99;

INTRNTL FALLS  FOG       56  55  97 CALM      29.87R VSB 1/4
6HR MIN TEMP:  57; 6HR MAX TEMP:  73;

ELY            MOCLDY    64  63  94 CALM      29.84S
CLOQUET        CLOUDY    66  64  94 S5        29.87R
BRAINERD       CLOUDY    68  67  96 E3        29.86R
6HR MIN TEMP:  68; 6HR MAX TEMP:  82; 6HR PCP:  0.81;

HIBBING        MOCLDY    64  63  96 CALM      29.86R
6HR MIN TEMP:  64; 6HR MAX TEMP:  80; 6HR PCP:  0.47;

ALEXANDRIA     LGT RAIN  70  67  90 N14       29.84F
6HR MIN TEMP:  69; 6HR MAX TEMP:  84; 6HR PCP:  0.99;

SAINT CLOUD    LGT RAIN  70  69  97 N6        29.80F
6HR MIN TEMP:  69; 6HR MAX TEMP:  84; 6HR PCP:  1.40;

MINNEAPOLIS    TSTM      77  69  76 S8        29.82S
6HR MIN TEMP:  77; 6HR MAX TEMP:  85; 6HR PCP:  0.02;

$$

  *****  WEATHER ACROSS SOUTH DAKOTA  *****

CITY           SKY/WX    TMP DP  RH WIND       PRES   REMARKS
SIOUX FALLS    CLOUDY    74  69  85 NE26G43   29.75R
6HR MIN TEMP:  72; 6HR MAX TEMP:  85; 6HR PCP: TRACE;

BROOKINGS      CLOUDY    68  63  83 N5        29.85R
WATERTOWN      CLOUDY    69  65  86 NE15G23   29.82F
6HR MIN TEMP:  68; 6HR MAX TEMP:  85; 6HR PCP:  0.67;

HURON          RAIN      69  67  93 N10       29.87R FOG
6HR MIN TEMP:  70; 6HR MAX TEMP:  86; 6HR PCP:  0.08;

SISSETON         N/A     69  66  90 N13       29.85F
ABERDEEN       CLOUDY    70  65  84 N15       29.86F
6HR MIN TEMP:  70; 6HR MAX TEMP:  82; 6HR PCP: TRACE;

MITCHELL       TSTM      71  69  93 NW13      29.88R FOG
PIERRE         CLOUDY    66  63  90 N10       29.93R FOG
6HR MIN TEMP:  66; 6HR MAX TEMP:  80; 6HR PCP:  0.08;

MOBRIDGE       CLOUDY    67  64  90 N7        29.93R FOG
RAPID CITY     CLOUDY    61  58  90 NW14      30.08R FOG
6HR MIN TEMP:  61; 6HR MAX TEMP:  65; 6HR PCP:  0.21;

$$

  *****  SOME WEATHER IN NEARBY STATES *****

CITY           SKY/WX    TMP DP  RH WIND       PRES   REMARKS
GLASGOW MT     LGT RAIN  60  51  72 W8        30.15R
6HR MIN TEMP:  60; 6HR MAX TEMP:  69; 6HR PCP: TRACE;

GREAT FALLS MT CLOUDY    50  49  96 W6        30.27S
6HR MIN TEMP:  49; 6HR MAX TEMP:  53; 6HR PCP:  0.04;

CHEYENNE WY    CLOUDY    58  57  97 N14G25    30.16R FOG
6HR MIN TEMP:  58; 6HR MAX TEMP:  66; 6HR PCP: TRACE;

SCOTTSBLUFF NE CLOUDY    63  59  87 N10       30.07R
6HR MIN TEMP:  63; 6HR MAX TEMP:  67; 6HR PCP:  0.08;

OMAHA NE       CLOUDY    80  76  87 SE15      29.80F
6HR MIN TEMP:  78; 6HR MAX TEMP:  89; 6HR PCP:  0.30;

DES MOINES IA  CLOUDY    77  70  79 S15G23    29.85F
6HR MIN TEMP:  77; 6HR MAX TEMP:  85;

DAVENPORT IA   CLEAR     71  65  81 S8        29.97R
6HR MIN TEMP:  71; 6HR MAX TEMP:  79;

CHICAGO IL     CLEAR     68  61  78 S6        29.99F
6HR MIN TEMP:  67; 6HR MAX TEMP:  79;

EAU CLAIRE WI  PTCLDY    73  65  75 S3        29.88R
6HR MIN TEMP:  73; 6HR MAX TEMP:  81;

LA CROSSE WI   CLEAR     75  66  73 S14G24    29.90R
6HR MIN TEMP:  74; 6HR MAX TEMP:  82;

$$

  *****  SOME NATIONAL WEATHER *****

CITY           SKY/WX    TMP DP  RH WIND       PRES   REMARKS



USA.gov is the U.S. government's official web portal to all federal, state and local government web resources and services.